Regional Weather Roundup
Issued by NWS

Home | Current Version | Previous Version | Graphics & Text | Print | Product List | Glossary On
Versions: 1 2 3 4 5 6 7 8 9 10 11 12 13 14 15 16 17 18 19 20 21 22 23 24 25 26 27 28 29 30 31 32 33 34 35 36 37 38 39 40 41 42 43 44 45 46 47 48 49 50
000
ASUS45 KPSR 241710
RWRAZ

ARIZONA HOURLY REGIONAL WEATHER ROUNDUP
NATIONAL WEATHER SERVICE PHOENIX AZ
1000 AM MST SUN MAY 24 2015

NOTE: FAIR INDICATES FEW OR NO CLOUDS BELOW 12,000 FEET WITH NO
SIGNIFICANT WEATHER AND/OR OBSTRUCTIONS TO VISIBILITY.

AZZ001>003-036-241800-
NORTHWEST ARIZONA

CITY           SKY/WX    TMP DP  RH WIND       PRES   REMARKS
BULLHEAD CITY  MOSUNNY   75  46  35 W10       29.89S
KINGMAN        PTSUNNY   70  37  29 SW8       29.97S
$$

AZZ004>008-015-016-018-241800-
NORTH CENTRAL ARIZONA

CITY           SKY/WX    TMP DP  RH WIND       PRES   REMARKS
GRAND CANYON   LGT RAIN  46  39  76 SW10      30.07S
WILLIAMS       LGT RAIN  45  41  87 SW14      30.15S
PRESCOTT       PTSUNNY   60  34  37 S6        30.03S
FLAGSTAFF      CLOUDY    49  35  58 W13       30.08S
PAYSON         MOSUNNY   61  36  39 SW7       30.05F
PAGE           CLOUDY    60  48  64 CALM      29.97R
$$

AZZ009>014-017-241800-
NORTHEAST ARIZONA

CITY           SKY/WX    TMP DP  RH WIND       PRES   REMARKS
WINSLOW        MOSUNNY   64  37  36 N7        30.00S
SAINT JOHNS    MOSUNNY   61  29  29 W13G23    30.00F
WINDOW ROCK    CLOUDY    53  35  50 W15       30.03S
SHOW LOW       SUNNY     57  28  33 SW15      30.07S
$$

AZZ023-241800-
GREATER PHOENIX AREA

CITY           SKY/WX    TMP DP  RH WIND       PRES   REMARKS
PHOENIX        PTSUNNY   76  41  28 CALM      29.91F
BUCKEYE        PTSUNNY   73  41  31 S6        29.93S
GLENDALE       PTSUNNY   75  41  29 S3        29.93F
LUKE AFB       PTSUNNY   76  44  30 NW5       29.90F
DEER VALLEY    MOSUNNY   72  43  35 E3        29.92F
SCOTTSDALE     SUNNY     73  40  30 W7        29.94F
MESA-FALCON    MOSUNNY   72  39  30 NW12      29.92
MESA-GATEWAY   MOSUNNY   73  41  31 CALM      29.94F
CHANDLER       MOSUNNY   75  43  31 VRB6      29.93F
$$

AZZ027-028-241800-
SOUTHWEST MARICOPA COUNTY AND PINAL COUNTY

CITY           SKY/WX    TMP DP  RH WIND       PRES   REMARKS
CASA GRANDE    SUNNY     73  39  29 W5        29.92S
GILA BEND      FAIR      74  39  27 VRB3      29.91F
$$

AZZ503-504-507>509-241800-
SOUTHEAST ARIZONA

CITY           SKY/WX    TMP DP  RH WIND       PRES   REMARKS
TUCSON         SUNNY     74  35  24 E3        29.97F
DAVIS-MONTHAN  SUNNY     73  36  26 NW3       29.95F
RYAN FIELD       N/A     73  37  27 SW3       29.96F
NOGALES        SUNNY     72  31  22 S7        29.99F
SIERRA VISTA   SUNNY     67  27  22 VRB6      30.02S
DOUGLAS        SUNNY     68  30  24 VRB3      30.01F
SAFFORD        SUNNY     72  33  24 VRB7      29.95F
$$

AZZ020-021-025-026-031-241800-
SOUTHWEST ARIZONA

CITY           SKY/WX    TMP DP  RH WIND       PRES   REMARKS
YUMA           MOSUNNY   75  47  36 NW5       29.91S
$$

CAZ031-033-041-043-047-048-061-241800-
SOUTHERN CALIFORNIA

CITY           SKY/WX    TMP DP  RH WIND       PRES   REMARKS
DOWNTOWN L.A.  CLOUDY    64  52  64 VRB3      30.02S
L.A. AIRPORT   PTSUNNY   62  51  67 SW5       30.03S
SAN DIEGO      PTSUNNY   64  48  56 W5        30.05S
BURBANK        CLOUDY    61  50  67 S5        30.02S
ONTARIO        PTSUNNY   64  51  62 W10       30.02R
RIVERSIDE      CLOUDY    63  52  67 VRB6      30.02S
PALM SPRINGS   MOSUNNY   77  46  33 N15G21    29.90S
EL CENTRO NAS  SUNNY     77  45  32 W13       29.90F
IMPERIAL       SUNNY     75  46  35 NW8G18    29.88F
BLYTHE         SUNNY     74  51  44 VRB7      29.89S
NEEDLES        SUNNY     79  43  27 VRB6      29.88F
$$

NVZ020-UTZ003-241800-
SOUTHERN NEVADA-UTAH

CITY           SKY/WX    TMP DP  RH WIND       PRES   REMARKS
LAS VEGAS      PTSUNNY   72  47  40 W3        29.88S
SALT LAKE CITY PTSUNNY   56  47  71 CALM      29.96S
$$

NMZ009-TXZ055-241800-
NEW MEXICO-WEST TEXAS

CITY           SKY/WX    TMP DP  RH WIND       PRES   REMARKS
ALBUQUERQUE    MOSUNNY   61  35  37 SW5       29.99F
EL PASO        SUNNY     72  27  18 W13G28    29.99F
$$


........................KEY........................
SKY/WX - SKY CONDITION/WEATHER
TMP    - TEMPERATURE IN FAHRENHEIT
DP     - DEW POINT IN FAHRENHEIT
RH     - RELATIVE HUMIDITY IN PERCENT
WIND   - DIRECTION AND SPEED IN MILES PER HOUR (MPH)
VRB    - VARIABLE WIND DIRECTION
PRES   - MEAN SEA LEVEL PRESSURE IN INCHES OF MERCURY
         F - FALLING PRESSURE   R - RISING PRESSURE
         S - STEADY PRESSURE
VSB    - VISIBILITY IN MILES
HX     - HEAT INDEX IN FAHRENHEIT
WCI    - WIND CHILL INDEX IN FAHRENHEIT
TC     - TEMPERATURE IN CELSIUS WHICH IS ALSO KNOWN AS
         TEMPERATURE IN CENTIGRADE
AFB    - AIR FORCE BASE
         LUKE AFB IS LUKE AIR FORCE BASE
         DAVIS-MONTHAN IS DAVIS-MONTHAN AIR FORCE BASE
NAS    - NAVAL AIR STATION
         EL CENTRO NAS IS EL CENTRO NAVAL AIR STATION
N/A    - NOT AVAILABLE



USA.gov is the U.S. government's official web portal to all federal, state and local government web resources and services.